Showing default

ELEKTRO-L 2, 41105

Orbit data source: Space-Track

ELEKTRO-L 2, 41105 is a Commonwealth of Independent States-origin payload satellite in GEO that was launched on Fri, 11 Dec 2015 UTC via a ZENIT-3SLBF launch vehicle from the Tyuratam Missile And Space Complex (TTMTR). Payload-class satellites include a variety of spacecraft equipped with specific instruments for various scientific and technological missions. These include communications satellites like Starlink; space stations such as the ISS; scientific satellites like the Hubble; Earth observation satellites from companies like Planet Labs, Umbra, and HawkEye 360; GPS; miniature CubeSats for education and research; and military/defense satellites.

Not visible in the next 10 days
Identifier
41105, 2015-074A
Orbit
GEO
Country
Flag of CISCIS
Related business
Manufacturer
Lavochkin
Mission
Operational Civil Weather
Bus & Motor
NAVIGATOR, Unknown motor
Mass
1,855 kg wet, 1,591 kg dry
Launch date (UTC)
2015-12-11 (10 years ago)
Launch vehicle
ZENIT-3SLBF
Launch site
Tyuratam Missile And Space Complex (TTMTR)
Object type
Payload
Rocket body
Debris
Shape & HBR
Box + 1 Pan + 1 Ant, 5.0 m
Radar Cross Section
11.105 m², Large (>1 m²)

Expand to show TLE details & history
Last TLE update: 18 hours ago

TLE from 18 hours ago
0 ELEKTRO-L 2
1 41105U 15074A   25260.29450988 -.00000134  00000-0  00000-0 0  9997
2 41105   6.0026  73.8734 0002616 172.8414 201.2954  1.00270993 35777
Epoch: 2025-09-17T07:04Z
TLE epoch observation values (Epoch: 2025-09-17T07:04:05.653Z)
Latitude
1.4414°
Longitude
-14.5782°
Altitude
35,796.372 km
Speed
3.074 km/s
True Right ascension
05h 51m 40s
True Declination
1° 26' 24"
Sunlit
Object was in daylight at epoch
Visualization orbit readout
Latitude
Unknown
Longitude
Unknown
Altitude
Unknown
Speed
Unknown
Apparent Right ascension
Unknown
Apparent Declination
Unknown
Sunlit
N/A
Visualization observer readout
Local Sidereal Time
17:38:53
Azimuth
Unknown
Elevation
Unknown
Doppler factor
Unknown
Orbital elements
Apogee altitude
35,798.901 km
Perigee altitude
35,776.84 km
Semi-major axis
42,166.007 km
Eccentricity
0.00026
Inclination
6.0026°
RAAN
73.8734°
Arg. of periapsis
172.8414°
True anomaly
201.28452°
Mean anomaly
201.2954°
Eccentric anomaly
201.28996°
Mean motion
0.25067 °/min
Orbital period
1,436.16 mins
BSTAR
0
Loading maneuver chart data...
Computing Atmospheric mass density...
Loading historical data...
Loading historical data...
Loading historical data...
Loading historical data...
Loading historical data...
Loading historical data...
Loading historical data...

Documentation

Showing up to 5 results
|